MDT,Max TemperatureF,Mean TemperatureF,Min TemperatureF,Max Dew PointF,MeanDew PointF,Min DewpointF,Max Humidity, Mean Humidity, Min Humidity, Max Sea Level PressureIn, Mean Sea Level PressureIn, Min Sea Level PressureIn, Max VisibilityMiles, Mean VisibilityMiles, Min VisibilityMiles, Max Wind SpeedMPH, Mean Wind SpeedMPH, Max Gust SpeedMPH,PrecipitationIn, CloudCover, Events, WindDirDegrees
2013-10-1,59,44,28,36,28,18,85,57,29,30.04,29.97,29.88,10,8,2,20,4,24,0.00,3,,302
2013-10-2,51,40,28,32,27,23,85,62,38,30.11,29.98,29.80,10,10,10,9,2,12,T,3,,356
2013-10-3,43,38,32,34,29,21,92,73,54,30.27,29.91,29.74,10,7,0,18,8,25,0.20,8,Fog-Rain-Snow,351
2013-10-4,49,39,29,27,23,19,75,56,37,30.49,30.42,30.29,10,10,10,13,4,15,0.00,1,,350
2013-10-5,55,40,24,30,25,20,85,57,28,30.58,30.48,30.39,10,8,2,6,1,8,0.00,0,,329
2013-10-6,63,45,27,35,29,24,85,58,30,30.45,30.32,30.16,10,10,10,6,1,6,0.00,0,,360
2013-10-7,71,50,28,33,26,18,85,50,15,30.14,29.93,29.76,10,9,4,22,4,29,0.00,0,,267
2013-10-8,53,43,32,30,24,18,70,48,26,29.87,29.81,29.77,10,10,10,18,6,23,0.00,3,,336
2013-10-9,56,43,29,32,28,25,85,58,30,29.96,29.87,29.78,10,10,10,8,1,10,0.00,1,,229
2013-10-10,57,42,27,31,26,21,85,57,28,29.88,29.78,29.67,10,10,10,18,4,22,0.00,2,,2
2013-10-11,55,42,29,27,20,9,72,44,15,30.06,29.98,29.89,10,10,6,9,2,12,0.00,2,,309
2013-10-12,53,41,29,34,26,21,76,54,32,30.06,29.99,29.91,10,10,10,10,2,15,T,4,,342
2013-10-13,53,44,34,37,32,27,92,68,44,30.12,30.03,29.98,10,10,8,15,5,18,0.05,6,Rain,309
2013-10-14,52,44,36,28,25,20,64,47,29,30.32,30.21,30.11,10,10,10,17,7,21,T,7,Rain,342
2013-10-15,53,39,25,26,22,13,81,51,21,30.41,30.31,30.20,10,10,10,7,1,8,0.00,1,,54
2013-10-16,51,37,23,24,21,18,81,56,30,30.25,30.17,30.07,10,10,9,8,1,10,0.00,2,,270
2013-10-17,53,40,26,25,22,20,75,52,28,30.25,30.17,30.13,10,10,10,13,3,18,0.00,2,,15
2013-10-18,56,39,22,24,21,17,75,50,24,30.36,30.26,30.16,10,10,9,6,1,8,0.00,0,,203
2013-10-19,61,43,25,25,22,19,75,49,22,30.27,30.15,30.01,10,10,4,6,1,8,0.00,0,,321
2013-10-20,61,44,27,28,24,20,75,49,23,30.15,30.08,30.01,10,10,10,8,2,9,0.00,0,,326
2013-10-21,61,44,27,27,25,22,75,52,28,30.30,30.22,30.15,10,10,10,6,1,10,0.00,0,,158
2013-10-22,64,46,27,28,26,22,78,51,24,30.33,30.23,30.11,10,10,10,6,1,7,0.00,0,,270
2013-10-23,64,45,25,29,26,22,81,53,25,30.28,30.19,30.09,10,10,9,7,1,8,0.00,0,,277
2013-10-24,64,45,26,28,26,23,78,52,25,30.27,30.18,30.07,10,10,9,6,1,8,0.00,0,,303
2013-10-25,64,46,27,26,24,20,78,50,21,30.35,30.26,30.19,10,10,10,8,1,9,0.00,0,,215
2013-10-26,62,44,26,26,24,20,75,50,25,30.42,30.29,30.17,10,10,8,6,0,6,0.00,0,,310
2013-10-27,57,41,24,27,23,19,81,54,26,30.14,29.84,29.61,10,10,10,20,2,24,0.00,2,,347
2013-10-28,44,37,30,34,25,19,85,65,44,29.83,29.71,29.63,10,8,1,20,10,25,0.02,7,Rain-Snow,357
2013-10-29,45,37,29,27,22,17,70,58,45,29.99,29.92,29.84,10,10,10,10,2,14,0.00,6,,344
2013-10-30,52,40,28,30,24,21,78,54,30,30.03,29.94,29.88,10,10,10,10,2,17,0.00,5,,203
2013-10-31,53,41,29,33,25,21,69,54,39,30.12,30.05,29.96,10,10,10,18,5,25,T,6,Rain,303